Location: Unspecified
(0.0000°N, 0.0000°E)
Time: 06:22:31
(UTC+00:00)

Vanguard 2 Rocket - Pass Details

Date: 06 October 2023
Orbit: 552 x 3312 km, 32.9° (Epoch: 06 December)

Event Time Altitude Azimuth Distance (km) Brightness Sun altitude
Rises 12:22:23 0° 318° (NW) 6,650 11.3 80.0°
Reaches altitude 10° 12:28:17 10° 331° (NNW) 5,951 11.2 78.8°
Maximum altitude 12:42:39 24° 19° (NNE) 5,130 10.9 75.5°
Drops below altitude 10° 12:56:44 10° 66° (ENE) 5,901 11.0 72.1°
Sets 13:02:25 0° 79° (E) 6,593 11.1 70.8°
